Location: Newark
(25.0000°N, 73.5000°E)
Time: 00:39:52
(UTC+00:00)

Tiros 1 despin weight - Pass Details

Date: 10 March 2021
Orbit: 593 x 641 km, 48.2° (Epoch: 15 April)

Event Time Altitude Azimuth Distance (km) Brightness Sun altitude
Rises 13:01:51 0° 184° (S) 2,811 ? 1.6°
Reaches altitude 10° 13:05:05 10° 159° (SSE) 1,918 ? 0.9°
Maximum altitude 13:07:24 14° 127° (SE) 1,670 ? 0.4°
Drops below altitude 10° 13:09:44 10° 95° (E) 1,933 ? -0.2°
Enters shadow 13:12:59 - 70° (ENE) 2,844 ? -0.9°
Sets 13:13:00 0° 70° (ENE) 2,849 - -0.9°
